{"data":{"norad_id":63949,"intl_designator":"2025-098Z","name":"STARLINK-33993","alt_names":[],"object_type":"PAYLOAD","status":"ACTIVE","operator":null,"country":"US","launch_date":"2025-05-13","launch_site_code":"AFWTR","launch_vehicle":null,"mission":null,"orbit_class":"UNKNOWN","rcs_meters":null,"size_class":null,"mass_kg":null,"dimensions":null,"purposes":["comms"],"wikipedia_slug":null,"has_3d_model":false,"image_url":null,"decayed_at":null,"tle_current":{"epoch":"2026-09-20T21:57:11.471904Z","epoch_age_seconds":111295,"freshness":"FRESH","line1":"1 63949U 25098Z   26263.91471611  .00016089  00000+0  56255-3 0  9993","line2":"2 63949  69.9999 139.8855 0003093 273.0412  87.0409 15.29601821 75844","mean_motion":15.29601821,"eccentricity":0.0003093,"inclination_deg":69.9999,"raan_deg":139.8855,"arg_perigee_deg":273.0412,"mean_anomaly_deg":87.0409,"bstar":0.00056255,"rev_number":7584,"period_min":94.14214733731,"perigee_km":474.88141172176,"apogee_km":479.12200052537,"semimajor_km":6855.1387061236,"source":"CELESTRAK","updated_at":"2026-09-21T09:00:35.172794Z"}}}